Location: Burtsch�tz
(51.0528°N, 12.1764°E)
Time: 14:35:35
(UTC+00:00)

IRS-1C Rocket - Pass Details

Date: 29 October 2020
Orbit: 801 x 805 km, 99.0° (Epoch: 28 November)

Event Time Altitude Azimuth Distance (km) Brightness Sun altitude
Rises 16:49:36 0° 152° (SSE) 3,306 7.1 -9.8°
Reaches altitude 10° 16:51:56 10° 150° (SSE) 2,380 6.3 -10.2°
Maximum altitude 16:57:08 65° 70° (ENE) 885 4.1 -11.0°
Drops below altitude 10° 17:02:23 10° 349° (N) 2,399 6.6 -11.8°
Sets 17:04:44 0° 347° (NNW) 3,334 7.4 -12.2°
